Year,Month,Day,Hour,Minute,Value (Times are PST for temperature in C)
2016,04,22,00,00,10.30
2016,04,22,00,01,10.20
2016,04,22,00,02,10.20
2016,04,22,00,03,10.20
2016,04,22,00,04,10.20
2016,04,22,00,05,10.30
2016,04,22,00,06,10.30
2016,04,22,00,07,10.30
2016,04,22,00,08,10.30
2016,04,22,00,09,10.30
2016,04,22,00,10,10.30
2016,04,22,00,11,10.30
2016,04,22,00,12,10.30
2016,04,22,00,13,10.30
2016,04,22,00,14,10.30
2016,04,22,00,15,10.30
2016,04,22,00,16,10.30
2016,04,22,00,17,10.20
2016,04,22,00,18,10.20
2016,04,22,00,19,10.20
2016,04,22,00,20,10.10
2016,04,22,00,21,10.10
2016,04,22,00,22,10.10
2016,04,22,00,23,10.10
2016,04,22,00,24,10.10
2016,04,22,00,25,10.10
2016,04,22,00,26,10.10
2016,04,22,00,27,10.10
2016,04,22,00,28,10.10
2016,04,22,00,29,10.10
2016,04,22,00,30,10.10
2016,04,22,00,31,10.10
2016,04,22,00,32,10.10
2016,04,22,00,33,10.10
2016,04,22,00,34,10.00
2016,04,22,00,35,10.00
2016,04,22,00,36,10.00
2016,04,22,00,37,10.00
2016,04,22,00,38,10.00
2016,04,22,00,39,10.00
2016,04,22,00,40,10.00
2016,04,22,00,41,10.00
2016,04,22,00,42,10.00
2016,04,22,00,43,10.00
2016,04,22,00,44,10.00
2016,04,22,00,45,9.90
2016,04,22,00,46,9.90
2016,04,22,00,47,9.90
2016,04,22,00,48,9.80
2016,04,22,00,49,9.80
2016,04,22,00,50,9.80
2016,04,22,00,51,9.80
2016,04,22,00,52,9.70
2016,04,22,00,53,9.70
2016,04,22,00,54,9.70
2016,04,22,00,55,9.70
2016,04,22,00,56,9.70
2016,04,22,00,57,9.70
2016,04,22,00,58,9.70
2016,04,22,00,59,9.80
2016,04,22,01,00,9.80
2016,04,22,01,01,9.80
2016,04,22,01,02,9.80
2016,04,22,01,03,9.80
2016,04,22,01,04,9.80
2016,04,22,01,05,9.80
2016,04,22,01,06,9.80
2016,04,22,01,07,9.80
2016,04,22,01,08,9.80
2016,04,22,01,09,9.90
2016,04,22,01,10,9.90
2016,04,22,01,11,9.90
2016,04,22,01,12,9.90
2016,04,22,01,13,9.90
2016,04,22,01,14,9.90
2016,04,22,01,15,9.90
2016,04,22,01,16,9.90
2016,04,22,01,17,9.90
2016,04,22,01,18,9.90
2016,04,22,01,19,9.90
2016,04,22,01,20,9.90
2016,04,22,01,21,9.90
2016,04,22,01,22,9.80
2016,04,22,01,23,9.80
2016,04,22,01,24,9.80
2016,04,22,01,25,9.80
2016,04,22,01,26,9.80
2016,04,22,01,27,9.80
2016,04,22,01,28,9.70
2016,04,22,01,29,9.70
2016,04,22,01,30,9.70
2016,04,22,01,31,9.70
2016,04,22,01,32,9.70
2016,04,22,01,33,9.60
2016,04,22,01,34,9.60
2016,04,22,01,35,9.60
2016,04,22,01,36,9.60
2016,04,22,01,37,9.60
2016,04,22,01,38,9.60
2016,04,22,01,39,9.60
2016,04,22,01,40,9.60
2016,04,22,01,41,9.50
2016,04,22,01,42,9.40
2016,04,22,01,43,9.40
2016,04,22,01,44,9.40
2016,04,22,01,45,9.40
2016,04,22,01,46,9.30
2016,04,22,01,47,9.30
2016,04,22,01,48,9.30
2016,04,22,01,49,9.30
2016,04,22,01,50,9.30
2016,04,22,01,51,9.30
2016,04,22,01,52,9.30
2016,04,22,01,53,9.30
2016,04,22,01,54,9.30
2016,04,22,01,55,9.30
2016,04,22,01,56,9.30
2016,04,22,01,57,9.40
2016,04,22,01,58,9.40
2016,04,22,01,59,9.40
2016,04,22,02,00,9.40
2016,04,22,02,01,9.40
2016,04,22,02,02,9.30
2016,04,22,02,03,9.30
2016,04,22,02,04,9.30
2016,04,22,02,05,9.30
2016,04,22,02,06,9.30
2016,04,22,02,07,9.30
2016,04,22,02,08,9.40
2016,04,22,02,09,9.40
2016,04,22,02,10,9.40
2016,04,22,02,11,9.40
2016,04,22,02,12,9.40
2016,04,22,02,13,9.30
2016,04,22,02,14,9.30
2016,04,22,02,15,9.30
2016,04,22,02,16,9.30
2016,04,22,02,17,9.30
2016,04,22,02,18,9.30
2016,04,22,02,19,9.30
2016,04,22,02,20,9.30
2016,04,22,02,21,9.30
2016,04,22,02,22,9.30
2016,04,22,02,23,9.30
2016,04,22,02,24,9.20
2016,04,22,02,25,9.20
2016,04,22,02,26,9.20
2016,04,22,02,27,9.20
2016,04,22,02,28,9.20
2016,04,22,02,29,9.20
2016,04,22,02,30,9.20
2016,04,22,02,31,9.20
2016,04,22,02,32,9.20
2016,04,22,02,33,9.20
2016,04,22,02,34,9.20
2016,04,22,02,35,9.20
2016,04,22,02,36,9.20
2016,04,22,02,37,9.20
2016,04,22,02,38,9.20
2016,04,22,02,39,9.20
2016,04,22,02,40,9.20
2016,04,22,02,41,9.20
2016,04,22,02,42,9.20
2016,04,22,02,43,9.20
2016,04,22,02,44,9.20
2016,04,22,02,45,9.20
2016,04,22,02,46,9.20
2016,04,22,02,47,9.20
2016,04,22,02,48,9.30
2016,04,22,02,49,9.30
2016,04,22,02,50,9.30
2016,04,22,02,51,9.30
2016,04,22,02,52,9.30
2016,04,22,02,53,9.40
2016,04,22,02,54,9.40
2016,04,22,02,55,9.40
2016,04,22,02,56,9.40
2016,04,22,02,57,9.40
2016,04,22,02,58,9.40
2016,04,22,02,59,9.40
2016,04,22,03,00,9.40
2016,04,22,03,01,9.50
2016,04,22,03,02,9.60
2016,04,22,03,03,9.60
2016,04,22,03,04,9.60
2016,04,22,03,05,9.60
2016,04,22,03,06,9.70
2016,04,22,03,07,9.70
2016,04,22,03,08,9.70
2016,04,22,03,09,9.70
2016,04,22,03,10,9.70
2016,04,22,03,11,9.70
2016,04,22,03,12,9.70
2016,04,22,03,13,9.70
2016,04,22,03,14,9.70
2016,04,22,03,15,9.70
2016,04,22,03,16,9.70
2016,04,22,03,17,9.70
2016,04,22,03,18,9.70
2016,04,22,03,19,9.70
2016,04,22,03,20,9.70
2016,04,22,03,21,9.80
2016,04,22,03,22,9.80
2016,04,22,03,23,9.80
2016,04,22,03,24,9.80
2016,04,22,03,25,9.80
2016,04,22,03,26,9.80
2016,04,22,03,27,9.80
2016,04,22,03,28,9.80
2016,04,22,03,29,9.80
2016,04,22,03,30,9.80
2016,04,22,03,31,9.80
2016,04,22,03,32,9.80
2016,04,22,03,33,9.70
2016,04,22,03,34,9.70
2016,04,22,03,35,9.70
2016,04,22,03,36,9.80
2016,04,22,03,37,9.80
2016,04,22,03,38,9.80
2016,04,22,03,39,9.80
2016,04,22,03,40,9.80
2016,04,22,03,41,9.80
2016,04,22,03,42,9.80
2016,04,22,03,43,9.80
2016,04,22,03,44,9.80
2016,04,22,03,45,9.80
2016,04,22,03,46,9.80
2016,04,22,03,47,9.80
2016,04,22,03,48,9.80
2016,04,22,03,49,9.80
2016,04,22,03,50,9.80
2016,04,22,03,51,9.80
2016,04,22,03,52,9.80
2016,04,22,03,53,9.80
2016,04,22,03,54,9.80
2016,04,22,03,55,9.80
2016,04,22,03,56,9.80
2016,04,22,03,57,9.80
2016,04,22,03,58,9.80
2016,04,22,03,59,9.80
2016,04,22,04,00,9.80
2016,04,22,04,01,9.80
2016,04,22,04,02,9.80
2016,04,22,04,03,9.80
2016,04,22,04,04,9.80
2016,04,22,04,05,9.80
2016,04,22,04,06,9.80
2016,04,22,04,07,9.80
2016,04,22,04,08,9.80
2016,04,22,04,09,9.80
2016,04,22,04,10,9.80
2016,04,22,04,11,9.80
2016,04,22,04,12,9.80
2016,04,22,04,13,9.80
2016,04,22,04,14,9.80
2016,04,22,04,15,9.80
2016,04,22,04,16,9.80
2016,04,22,04,17,9.80
2016,04,22,04,18,9.80
2016,04,22,04,19,9.80
2016,04,22,04,20,9.80
2016,04,22,04,21,9.80
2016,04,22,04,22,9.80
2016,04,22,04,23,9.80
2016,04,22,04,24,9.80
2016,04,22,04,25,9.80
2016,04,22,04,26,9.80
2016,04,22,04,27,9.80
2016,04,22,04,28,9.90
2016,04,22,04,29,9.90
2016,04,22,04,30,9.90
2016,04,22,04,31,9.90
2016,04,22,04,32,9.90
2016,04,22,04,33,9.90
2016,04,22,04,34,9.90
2016,04,22,04,35,9.90
2016,04,22,04,36,9.90
2016,04,22,04,37,9.90
2016,04,22,04,38,9.90
2016,04,22,04,39,9.90
2016,04,22,04,40,9.90
2016,04,22,04,41,9.90
2016,04,22,04,42,9.90
2016,04,22,04,43,9.90
2016,04,22,04,44,9.80
2016,04,22,04,45,9.80
2016,04,22,04,46,9.80
2016,04,22,04,47,9.80
2016,04,22,04,48,9.80
2016,04,22,04,49,9.80
2016,04,22,04,50,9.80
2016,04,22,04,51,9.80
2016,04,22,04,52,9.80
2016,04,22,04,53,9.80
2016,04,22,04,54,9.80
2016,04,22,04,55,9.80
2016,04,22,04,56,9.80
2016,04,22,04,57,9.80
2016,04,22,04,58,9.80
2016,04,22,04,59,9.90
2016,04,22,05,00,9.90
2016,04,22,05,01,9.90
2016,04,22,05,02,9.90
2016,04,22,05,03,9.90
2016,04,22,05,04,10.00
2016,04,22,05,05,10.00
2016,04,22,05,06,10.10
2016,04,22,05,07,10.10
2016,04,22,05,08,10.10
2016,04,22,05,09,10.10
2016,04,22,05,10,10.10
2016,04,22,05,11,10.20
2016,04,22,05,12,10.20
2016,04,22,05,13,10.20
2016,04,22,05,14,10.20
2016,04,22,05,15,10.30
2016,04,22,05,16,10.30
2016,04,22,05,17,10.30
2016,04,22,05,18,10.30
2016,04,22,05,19,10.30
2016,04,22,05,20,10.40
2016,04,22,05,21,10.40
2016,04,22,05,22,10.40
2016,04,22,05,23,10.40
2016,04,22,05,24,10.40
2016,04,22,05,25,10.40
2016,04,22,05,26,10.40
2016,04,22,05,27,10.40
2016,04,22,05,28,10.40
2016,04,22,05,29,10.40
2016,04,22,05,30,10.40
2016,04,22,05,31,10.30
2016,04,22,05,32,10.30
2016,04,22,05,33,10.30
2016,04,22,05,34,10.30
2016,04,22,05,35,10.30
2016,04,22,05,36,10.30
2016,04,22,05,37,10.30
2016,04,22,05,38,10.30
2016,04,22,05,39,10.30
2016,04,22,05,40,10.30
2016,04,22,05,41,10.40
2016,04,22,05,42,10.40
2016,04,22,05,43,10.40
2016,04,22,05,44,10.40
2016,04,22,05,45,10.40
2016,04,22,05,46,10.40
2016,04,22,05,47,10.40
2016,04,22,05,48,10.40
2016,04,22,05,49,10.30
2016,04,22,05,50,10.30
2016,04,22,05,51,10.30
2016,04,22,05,52,10.30
2016,04,22,05,53,10.20
2016,04,22,05,54,10.20
2016,04,22,05,55,10.20
2016,04,22,05,56,10.30
2016,04,22,05,57,10.30
2016,04,22,05,58,10.30
2016,04,22,05,59,10.40
2016,04,22,06,00,10.50
2016,04,22,06,01,10.60
2016,04,22,06,02,10.70
2016,04,22,06,03,10.80
2016,04,22,06,04,11.00
2016,04,22,06,05,11.20
2016,04,22,06,06,11.40
2016,04,22,06,07,11.60
2016,04,22,06,08,11.80
2016,04,22,06,09,11.90
2016,04,22,06,10,12.10
2016,04,22,06,11,12.20
2016,04,22,06,12,12.30
2016,04,22,06,13,12.40
2016,04,22,06,14,12.50
2016,04,22,06,15,12.50
2016,04,22,06,16,12.60
2016,04,22,06,17,12.60
2016,04,22,06,18,12.70
2016,04,22,06,19,12.70
2016,04,22,06,20,12.70
2016,04,22,06,21,12.70
2016,04,22,06,22,12.70
2016,04,22,06,23,12.70
2016,04,22,06,24,12.80
2016,04,22,06,25,12.80
2016,04,22,06,26,12.80
2016,04,22,06,27,12.80
2016,04,22,06,28,12.80
2016,04,22,06,29,12.70
2016,04,22,06,30,12.70
2016,04,22,06,31,12.70
2016,04,22,06,32,12.70
2016,04,22,06,33,12.60
2016,04,22,06,34,12.60
2016,04,22,06,35,12.60
2016,04,22,06,36,12.50
2016,04,22,06,37,12.50
2016,04,22,06,38,12.40
2016,04,22,06,39,12.40
2016,04,22,06,40,12.40
2016,04,22,06,41,12.40
2016,04,22,06,42,12.40
2016,04,22,06,43,12.40
2016,04,22,06,44,12.40
2016,04,22,06,45,12.40
2016,04,22,06,46,12.40
2016,04,22,06,47,12.50
2016,04,22,06,48,12.50
2016,04,22,06,49,12.60
2016,04,22,06,50,12.60
2016,04,22,06,51,12.70
2016,04,22,06,52,12.70
2016,04,22,06,53,12.70
2016,04,22,06,54,12.70
2016,04,22,06,55,12.70
2016,04,22,06,56,12.80
2016,04,22,06,57,12.80
2016,04,22,06,58,12.80
2016,04,22,06,59,12.70
2016,04,22,07,00,12.70
2016,04,22,07,01,12.70
2016,04,22,07,02,12.60
2016,04,22,07,03,12.50
2016,04,22,07,04,12.50
2016,04,22,07,05,12.40
2016,04,22,07,06,12.40
2016,04,22,07,07,12.40
2016,04,22,07,08,12.40
2016,04,22,07,09,12.30
2016,04,22,07,10,12.30
2016,04,22,07,11,12.30
2016,04,22,07,12,12.30
2016,04,22,07,13,12.30
2016,04,22,07,14,12.20
2016,04,22,07,15,12.20
2016,04,22,07,16,12.20
2016,04,22,07,17,12.20
2016,04,22,07,18,12.10
2016,04,22,07,19,12.10
2016,04,22,07,20,12.10
2016,04,22,07,21,12.10
2016,04,22,07,22,12.00
2016,04,22,07,23,12.00
2016,04,22,07,24,11.90
2016,04,22,07,25,11.90
2016,04,22,07,26,11.90
2016,04,22,07,27,11.90
2016,04,22,07,28,11.90
2016,04,22,07,29,11.90
2016,04,22,07,30,11.80
2016,04,22,07,31,11.80
2016,04,22,07,32,11.80
2016,04,22,07,33,11.80
2016,04,22,07,34,11.80
2016,04,22,07,35,11.80
2016,04,22,07,36,11.80
2016,04,22,07,37,11.80
2016,04,22,07,38,11.80
2016,04,22,07,39,11.80
2016,04,22,07,40,11.80
2016,04,22,07,41,11.80
2016,04,22,07,42,11.80
2016,04,22,07,43,11.80
2016,04,22,07,44,11.80
2016,04,22,07,45,11.80
2016,04,22,07,46,11.80
2016,04,22,07,47,11.80
2016,04,22,07,48,11.80
2016,04,22,07,49,11.80
2016,04,22,07,50,11.80
2016,04,22,07,51,11.80
2016,04,22,07,52,11.80
2016,04,22,07,53,11.80
2016,04,22,07,54,11.80
2016,04,22,07,55,11.90
2016,04,22,07,56,11.90
2016,04,22,07,57,11.90
2016,04,22,07,58,12.00
2016,04,22,07,59,12.00
2016,04,22,08,00,12.10
2016,04,22,08,01,12.10
2016,04,22,08,02,12.10
2016,04,22,08,03,12.20
2016,04,22,08,04,12.20
2016,04,22,08,05,12.20
2016,04,22,08,06,12.30
2016,04,22,08,07,12.30
2016,04,22,08,08,12.40
2016,04,22,08,09,12.40
2016,04,22,08,10,12.40
2016,04,22,08,11,12.40
2016,04,22,08,12,12.50
2016,04,22,08,13,12.50
2016,04,22,08,14,12.60
2016,04,22,08,15,12.60
2016,04,22,08,16,12.60
2016,04,22,08,17,12.70
2016,04,22,08,18,12.70
2016,04,22,08,19,12.70
2016,04,22,08,20,12.70
2016,04,22,08,21,12.80
2016,04,22,08,22,12.80
2016,04,22,08,23,12.90
2016,04,22,08,24,12.90
2016,04,22,08,25,13.00
2016,04,22,08,26,13.00
2016,04,22,08,27,13.10
2016,04,22,08,28,13.10
2016,04,22,08,29,13.20
2016,04,22,08,30,13.20
2016,04,22,08,31,13.30
2016,04,22,08,32,13.40
2016,04,22,08,33,13.50
2016,04,22,08,34,13.50
2016,04,22,08,35,13.60
2016,04,22,08,36,13.70
2016,04,22,08,37,13.80
2016,04,22,08,38,13.90
2016,04,22,08,39,14.10
2016,04,22,08,40,14.30
2016,04,22,08,41,14.40
2016,04,22,08,42,14.60
2016,04,22,08,43,14.80
2016,04,22,08,44,14.90
2016,04,22,08,45,15.00
2016,04,22,08,46,15.00
2016,04,22,08,47,15.00
2016,04,22,08,48,15.10
2016,04,22,08,49,15.10
2016,04,22,08,50,15.20
2016,04,22,08,51,15.20
2016,04,22,08,52,15.10
2016,04,22,08,53,15.10
2016,04,22,08,54,15.10
2016,04,22,08,55,15.10
2016,04,22,08,56,15.10
2016,04,22,08,57,15.10
2016,04,22,08,58,15.10
2016,04,22,08,59,15.10
2016,04,22,09,00,15.20
2016,04,22,09,01,15.20
2016,04,22,09,02,15.20
2016,04,22,09,03,15.20
2016,04,22,09,04,15.20
2016,04,22,09,05,15.30
2016,04,22,09,06,15.40
2016,04,22,09,07,15.50
2016,04,22,09,08,15.60
2016,04,22,09,09,15.70
2016,04,22,09,10,15.80
2016,04,22,09,11,15.90
2016,04,22,09,12,15.90
2016,04,22,09,13,15.90
2016,04,22,09,14,15.90
2016,04,22,09,15,15.90
2016,04,22,09,16,15.90
2016,04,22,09,17,15.80
2016,04,22,09,18,15.80
2016,04,22,09,19,15.90
2016,04,22,09,20,15.90
2016,04,22,09,21,15.90
2016,04,22,09,22,16.00
2016,04,22,09,23,16.00
2016,04,22,09,24,16.00
2016,04,22,09,25,16.10
2016,04,22,09,26,16.10
2016,04,22,09,27,16.10
2016,04,22,09,28,16.20
2016,04,22,09,29,16.30
2016,04,22,09,30,16.30
2016,04,22,09,31,16.30
2016,04,22,09,32,16.10
2016,04,22,09,33,16.00
2016,04,22,09,34,15.90
2016,04,22,09,35,15.80
2016,04,22,09,36,15.70
2016,04,22,09,37,15.70
2016,04,22,09,38,15.70
2016,04,22,09,39,15.60
2016,04,22,09,40,15.40
2016,04,22,09,41,15.30
2016,04,22,09,42,15.20
2016,04,22,09,43,15.20
2016,04,22,09,44,15.10
2016,04,22,09,45,15.20
2016,04,22,09,46,15.20
2016,04,22,09,47,15.40
2016,04,22,09,48,15.50
2016,04,22,09,49,15.70
2016,04,22,09,50,15.80
2016,04,22,09,51,16.00
2016,04,22,09,52,16.00
2016,04,22,09,53,16.00
2016,04,22,09,54,15.90
2016,04,22,09,55,15.90
2016,04,22,09,56,15.80
2016,04,22,09,57,15.90
2016,04,22,09,58,15.90
2016,04,22,09,59,15.90
2016,04,22,10,00,15.80
2016,04,22,10,01,15.70
2016,04,22,10,02,15.60
2016,04,22,10,03,15.50
2016,04,22,10,04,15.50
2016,04,22,10,05,15.40
2016,04,22,10,06,15.30
2016,04,22,10,07,15.30
2016,04,22,10,08,15.20
2016,04,22,10,09,15.20
2016,04,22,10,10,15.20
2016,04,22,10,11,15.20
2016,04,22,10,12,15.10
2016,04,22,10,13,15.00
2016,04,22,10,14,15.00
2016,04,22,10,15,14.90
2016,04,22,10,16,14.90
2016,04,22,10,17,14.90
2016,04,22,10,18,14.90
2016,04,22,10,19,14.90
2016,04,22,10,20,14.80
2016,04,22,10,21,14.80
2016,04,22,10,22,14.80
2016,04,22,10,23,14.80
2016,04,22,10,24,14.80
2016,04,22,10,25,14.80
2016,04,22,10,26,14.80
2016,04,22,10,27,14.70
2016,04,22,10,28,14.60
2016,04,22,10,29,14.40
2016,04,22,10,30,14.20
2016,04,22,10,31,14.20
2016,04,22,10,32,14.20
2016,04,22,10,33,14.30
2016,04,22,10,34,14.30
2016,04,22,10,35,14.40
2016,04,22,10,36,14.60
2016,04,22,10,37,14.70
2016,04,22,10,38,14.80
2016,04,22,10,39,14.90
2016,04,22,10,40,15.00
2016,04,22,10,41,15.20
2016,04,22,10,42,15.30
2016,04,22,10,43,15.40
2016,04,22,10,44,15.40
2016,04,22,10,45,15.30
2016,04,22,10,46,15.30
2016,04,22,10,47,15.30
2016,04,22,10,48,15.20
2016,04,22,10,49,15.10
2016,04,22,10,50,15.00
2016,04,22,10,51,14.90
2016,04,22,10,52,14.80
2016,04,22,10,53,14.80
2016,04,22,10,54,14.80
2016,04,22,10,55,14.80
2016,04,22,10,56,14.80
2016,04,22,10,57,14.90
2016,04,22,10,58,14.90
2016,04,22,10,59,14.90
2016,04,22,11,00,15.00
2016,04,22,11,01,14.90
2016,04,22,11,02,15.00
2016,04,22,11,03,15.00
2016,04,22,11,04,15.10
2016,04,22,11,05,15.20
2016,04,22,11,06,15.20
2016,04,22,11,07,15.30
2016,04,22,11,08,15.40
2016,04,22,11,09,15.60
2016,04,22,11,10,15.70
2016,04,22,11,11,15.70
2016,04,22,11,12,15.70
2016,04,22,11,13,15.80
2016,04,22,11,14,15.90
2016,04,22,11,15,16.00
2016,04,22,11,16,16.10
2016,04,22,11,17,15.90
2016,04,22,11,18,15.70
2016,04,22,11,19,15.50
2016,04,22,11,20,15.30
2016,04,22,11,21,15.20
2016,04,22,11,22,15.20
2016,04,22,11,23,15.20
2016,04,22,11,24,15.30
2016,04,22,11,25,15.40
2016,04,22,11,26,15.40
2016,04,22,11,27,15.40
2016,04,22,11,28,15.30
2016,04,22,11,29,15.30
2016,04,22,11,30,15.40
2016,04,22,11,31,15.40
2016,04,22,11,32,15.40
2016,04,22,11,33,15.50
2016,04,22,11,34,15.60
2016,04,22,11,35,15.60
2016,04,22,11,36,15.70
2016,04,22,11,37,15.70
2016,04,22,11,38,15.60
2016,04,22,11,39,15.60
2016,04,22,11,40,15.60
2016,04,22,11,41,15.60
2016,04,22,11,42,15.50
2016,04,22,11,43,15.50
2016,04,22,11,44,15.40
2016,04,22,11,45,15.40
2016,04,22,11,46,15.40
2016,04,22,11,47,15.40
2016,04,22,11,48,15.40
2016,04,22,11,49,15.40
2016,04,22,11,50,15.40
2016,04,22,11,51,15.40
2016,04,22,11,52,15.30
2016,04,22,11,53,15.30
2016,04,22,11,54,15.20
2016,04,22,11,55,15.20
2016,04,22,11,56,15.20
2016,04,22,11,57,15.20
2016,04,22,11,58,15.20
2016,04,22,11,59,15.20
2016,04,22,12,00,15.20
2016,04,22,12,01,15.20
2016,04,22,12,02,15.20
2016,04,22,12,03,15.20
2016,04,22,12,04,15.20
2016,04,22,12,05,15.10
2016,04,22,12,06,15.10
2016,04,22,12,07,15.00
2016,04,22,12,08,15.00
2016,04,22,12,09,15.00
2016,04,22,12,10,15.00
2016,04,22,12,11,15.00
2016,04,22,12,12,15.00
2016,04,22,12,13,15.00
2016,04,22,12,14,15.10
2016,04,22,12,15,15.10
2016,04,22,12,16,15.10
2016,04,22,12,17,15.10
2016,04,22,12,18,15.20
2016,04,22,12,19,15.20
2016,04,22,12,20,15.20
2016,04,22,12,21,15.30
2016,04,22,12,22,15.30
2016,04,22,12,23,15.20
2016,04,22,12,24,15.20
2016,04,22,12,25,15.20
2016,04,22,12,26,15.10
2016,04,22,12,27,15.00
2016,04,22,12,28,14.90
2016,04,22,12,29,14.70
2016,04,22,12,30,14.60
2016,04,22,12,31,14.60
2016,04,22,12,32,14.50
2016,04,22,12,33,14.40
2016,04,22,12,34,14.30
2016,04,22,12,35,14.30
2016,04,22,12,36,14.30
2016,04,22,12,37,14.30
2016,04,22,12,38,14.30
2016,04,22,12,39,14.30
2016,04,22,12,40,14.30
2016,04,22,12,41,14.30
2016,04,22,12,42,14.30
2016,04,22,12,43,14.30
2016,04,22,12,44,14.40
2016,04,22,12,45,14.40
2016,04,22,12,46,14.40
2016,04,22,12,47,14.40
2016,04,22,12,48,14.40
2016,04,22,12,49,14.50
2016,04,22,12,50,14.50
2016,04,22,12,51,14.60
2016,04,22,12,52,14.60
2016,04,22,12,53,14.60
2016,04,22,12,54,14.70
2016,04,22,12,55,14.80
2016,04,22,12,56,14.80
2016,04,22,12,57,14.80
2016,04,22,12,58,14.90
2016,04,22,12,59,14.90
2016,04,22,13,00,14.90
2016,04,22,13,01,15.00
2016,04,22,13,02,15.00
2016,04,22,13,03,15.10
2016,04,22,13,04,15.10
2016,04,22,13,05,15.20
2016,04,22,13,06,15.30
2016,04,22,13,07,15.40
2016,04,22,13,08,15.40
2016,04,22,13,09,15.40
2016,04,22,13,10,15.40
2016,04,22,13,11,15.50
2016,04,22,13,12,15.50
2016,04,22,13,13,15.60
2016,04,22,13,14,15.60
2016,04,22,13,15,15.70
2016,04,22,13,16,15.70
2016,04,22,13,17,15.80
2016,04,22,13,18,15.80
2016,04,22,13,19,15.80
2016,04,22,13,20,15.80
2016,04,22,13,21,15.70
2016,04,22,13,22,15.70
2016,04,22,13,23,15.70
2016,04,22,13,24,15.70
2016,04,22,13,25,15.60
2016,04,22,13,26,15.60
2016,04,22,13,27,15.50
2016,04,22,13,28,15.40
2016,04,22,13,29,15.40
2016,04,22,13,30,15.50
2016,04,22,13,31,15.50
2016,04,22,13,32,15.50
2016,04,22,13,33,15.60
2016,04,22,13,34,15.60
2016,04,22,13,35,15.70
2016,04,22,13,36,15.80
2016,04,22,13,37,15.80
2016,04,22,13,38,15.80
2016,04,22,13,39,15.70
2016,04,22,13,40,15.70
2016,04,22,13,41,15.70
2016,04,22,13,42,15.70
2016,04,22,13,43,15.70
2016,04,22,13,44,15.70
2016,04,22,13,45,15.70
2016,04,22,13,46,15.70
2016,04,22,13,47,15.80
2016,04,22,13,48,15.80
2016,04,22,13,49,15.80
2016,04,22,13,50,15.80
2016,04,22,13,51,15.70
2016,04,22,13,52,15.70
2016,04,22,13,53,15.70
2016,04,22,13,54,15.80
2016,04,22,13,55,15.80
2016,04,22,13,56,15.80
2016,04,22,13,57,15.80
2016,04,22,13,58,15.80
2016,04,22,13,59,15.70
2016,04,22,14,00,15.70
2016,04,22,14,01,15.70
2016,04,22,14,02,15.70
2016,04,22,14,03,15.60
2016,04,22,14,04,15.50
2016,04,22,14,05,15.40
2016,04,22,14,06,15.40
2016,04,22,14,07,15.30
2016,04,22,14,08,15.30
2016,04,22,14,09,15.30
2016,04,22,14,10,15.30
2016,04,22,14,11,15.40
2016,04,22,14,12,15.40
2016,04,22,14,13,15.40
2016,04,22,14,14,15.40
2016,04,22,14,15,15.40
2016,04,22,14,16,15.40
2016,04,22,14,17,15.40
2016,04,22,14,18,15.40
2016,04,22,14,19,15.40
2016,04,22,14,20,15.40
2016,04,22,14,21,15.50
2016,04,22,14,22,15.50
2016,04,22,14,23,15.60
2016,04,22,14,24,15.60
2016,04,22,14,25,15.60
2016,04,22,14,26,15.60
2016,04,22,14,27,15.70
2016,04,22,14,28,15.60
2016,04,22,14,29,15.70
2016,04,22,14,30,15.70
2016,04,22,14,31,15.70
2016,04,22,14,32,15.70
2016,04,22,14,33,15.80
2016,04,22,14,34,15.80
2016,04,22,14,35,15.80
2016,04,22,14,36,15.90
2016,04,22,14,37,15.90
2016,04,22,14,38,15.80
2016,04,22,14,39,15.70
2016,04,22,14,40,15.60
2016,04,22,14,41,15.60
2016,04,22,14,42,15.60
2016,04,22,14,43,15.60
2016,04,22,14,44,15.60
2016,04,22,14,45,15.60
2016,04,22,14,46,15.70
2016,04,22,14,47,15.70
2016,04,22,14,48,15.70
2016,04,22,14,49,15.70
2016,04,22,14,50,15.60
2016,04,22,14,51,15.60
2016,04,22,14,52,15.50
2016,04,22,14,53,15.50
2016,04,22,14,54,15.50
2016,04,22,14,55,15.50
2016,04,22,14,56,15.60
2016,04,22,14,57,15.60
2016,04,22,14,58,15.60
2016,04,22,14,59,15.60
2016,04,22,15,00,15.60
2016,04,22,15,01,15.60
2016,04,22,15,02,15.50
2016,04,22,15,03,15.40
2016,04,22,15,04,15.30
2016,04,22,15,05,15.30
2016,04,22,15,06,15.30
2016,04,22,15,07,15.30
2016,04,22,15,08,15.30
2016,04,22,15,09,15.30
2016,04,22,15,10,15.30
2016,04,22,15,11,15.30
2016,04,22,15,12,15.30
2016,04,22,15,13,15.30
2016,04,22,15,14,15.30
2016,04,22,15,15,15.30
2016,04,22,15,16,15.30
2016,04,22,15,17,15.40
2016,04,22,15,18,15.40
2016,04,22,15,19,15.40
2016,04,22,15,20,15.40
2016,04,22,15,21,15.30
2016,04,22,15,22,15.30
2016,04,22,15,23,15.30
2016,04,22,15,24,15.40
2016,04,22,15,25,15.40
2016,04,22,15,26,15.50
2016,04,22,15,27,15.50
2016,04,22,15,28,15.60
2016,04,22,15,29,15.60
2016,04,22,15,30,15.60
2016,04,22,15,31,15.50
2016,04,22,15,32,15.40
2016,04,22,15,33,15.40
2016,04,22,15,34,15.30
2016,04,22,15,35,15.20
2016,04,22,15,36,15.20
2016,04,22,15,37,15.10
2016,04,22,15,38,15.10
2016,04,22,15,39,15.10
2016,04,22,15,40,15.00
2016,04,22,15,41,15.10
2016,04,22,15,42,15.10
2016,04,22,15,43,15.10
2016,04,22,15,44,15.20
2016,04,22,15,45,15.20
2016,04,22,15,46,15.10
2016,04,22,15,47,15.20
2016,04,22,15,48,15.20
2016,04,22,15,49,15.20
2016,04,22,15,50,15.10
2016,04,22,15,51,15.00
2016,04,22,15,52,14.90
2016,04,22,15,53,14.90
2016,04,22,15,54,14.90
2016,04,22,15,55,14.90
2016,04,22,15,56,14.80
2016,04,22,15,57,14.80
2016,04,22,15,58,14.80
2016,04,22,15,59,14.80
2016,04,22,16,00,14.80
2016,04,22,16,01,14.80
2016,04,22,16,02,14.70
2016,04,22,16,03,14.70
2016,04,22,16,04,14.70
2016,04,22,16,05,14.70
2016,04,22,16,06,14.60
2016,04,22,16,07,14.60
2016,04,22,16,08,14.50
2016,04,22,16,09,14.40
2016,04,22,16,10,14.30
2016,04,22,16,11,14.30
2016,04,22,16,12,14.20
2016,04,22,16,13,14.20
2016,04,22,16,14,14.10
2016,04,22,16,15,14.10
2016,04,22,16,16,14.00
2016,04,22,16,17,14.00
2016,04,22,16,18,14.00
2016,04,22,16,19,13.90
2016,04,22,16,20,13.90
2016,04,22,16,21,13.80
2016,04,22,16,22,13.80
2016,04,22,16,23,13.80
2016,04,22,16,24,13.80
2016,04,22,16,25,13.70
2016,04,22,16,26,13.70
2016,04,22,16,27,13.70
2016,04,22,16,28,13.70
2016,04,22,16,29,13.70
2016,04,22,16,30,13.60
2016,04,22,16,31,13.60
2016,04,22,16,32,13.60
2016,04,22,16,33,13.60
2016,04,22,16,34,13.60
2016,04,22,16,35,13.60
2016,04,22,16,36,13.50
2016,04,22,16,37,13.50
2016,04,22,16,38,13.50
2016,04,22,16,39,13.50
2016,04,22,16,40,13.50
2016,04,22,16,41,13.40
2016,04,22,16,42,13.40
2016,04,22,16,43,13.40
2016,04,22,16,44,13.40
2016,04,22,16,45,13.40
2016,04,22,16,46,13.40
2016,04,22,16,47,13.40
2016,04,22,16,48,13.40
2016,04,22,16,49,13.40
2016,04,22,16,50,13.40
2016,04,22,16,51,13.40
2016,04,22,16,52,13.40
2016,04,22,16,53,13.40
2016,04,22,16,54,13.40
2016,04,22,16,55,13.50
2016,04,22,16,56,13.50
2016,04,22,16,57,13.50
2016,04,22,16,58,13.50
2016,04,22,16,59,13.50
2016,04,22,17,00,13.50
2016,04,22,17,01,13.60
2016,04,22,17,02,13.60
2016,04,22,17,03,13.60
2016,04,22,17,04,13.60
2016,04,22,17,05,13.70
2016,04,22,17,06,13.70
2016,04,22,17,07,13.70
2016,04,22,17,08,13.70
2016,04,22,17,09,13.70
2016,04,22,17,10,13.80
2016,04,22,17,11,13.80
2016,04,22,17,12,13.80
2016,04,22,17,13,13.80
2016,04,22,17,14,13.80
2016,04,22,17,15,13.90
2016,04,22,17,16,13.80
2016,04,22,17,17,13.90
2016,04,22,17,18,13.90
2016,04,22,17,19,13.90
2016,04,22,17,20,13.90
2016,04,22,17,21,13.90
2016,04,22,17,22,13.90
2016,04,22,17,23,13.90
2016,04,22,17,24,13.90
2016,04,22,17,25,13.90
2016,04,22,17,26,13.90
2016,04,22,17,27,13.90
2016,04,22,17,28,13.90
2016,04,22,17,29,13.90
2016,04,22,17,30,13.80